This demonstration page uses our WeatherBlox Daily Observations layout. Learn more.

Left ArrowRight Arrow

40.92945, -100.16068

Hourly Observations for February 6, 2018

Temp ( °F °C ) Dew Point ( °F °C ) Humidity (%) Winds ( mph kmh ) Pressure ( in mb ) Visibility ( mi km ) Precip ( " mm )
12:15 am 00:15 Cloudy 10 -12.1 4 -15.6 75 75 WSW 5 7 30.56 1035 10 16 N/A
12:35 am 00:35 Cloudy 10 -12.1 4 -15.6 75 75 W 5 7 30.56 1035 10 16 N/A
12:55 am 00:55 Mostly Cloudy 11 -11.6 5 -15.2 75 75 WNW 3 6 30.56 1035 10 16 N/A
1:15 am 01:15 Clear 10 -12.4 4 -15.5 78 78 N 6 9 30.53 1034 10 16 N/A
1:35 am 01:35 Clear 9 -12.6 4 -15.8 77 77 N 7 11 30.50 1033 10 16 N/A
1:55 am 01:55 Partly Cloudy 9 -12.7 3 -16 77 77 NNE 5 7 30.53 1034 10 16 N/A
2:15 am 02:15 Mostly Cloudy 10 -12.5 4 -15.6 78 78 NNE 3 6 30.50 1033 10 16 N/A
2:35 am 02:35 Mostly Cloudy 9 -13 3 -16 78 78 NNE 3 6 30.50 1033 10 16 N/A
2:55 am 02:55 Mostly Cloudy 8 -13.6 2 -16.5 79 79 N N/A 30.50 1033 10 16 N/A
3:15 am 03:15 Cloudy 8 -13.5 3 -16.2 80 80 ENE 3 6 30.50 1033 10 16 N/A
3:35 am 03:35 Cloudy 10 -12.5 4 -15.7 77 77 NNE 5 7 30.50 1033 10 16 N/A
3:55 am 03:55 Cloudy 10 -12 4 -15.5 75 75 E 7 11 30.50 1033 10 16 N/A
4:15 am 04:15 Cloudy 10 -12 3 -16 72 72 ESE 7 11 30.50 1033 10 16 N/A
4:35 am 04:35 Cloudy 10 -12 3 -16.1 72 72 SE 7 11 30.50 1033 10 16 N/A
4:55 am 04:55 Cloudy 11 -11.8 3 -16 71 71 SSE 8 13 30.50 1033 10 16 N/A
5:15 am 05:15 Cloudy 11 -11.7 4 -15.7 72 72 SE 8 13 30.50 1033 10 16 N/A
5:35 am 05:35 Cloudy 11 -11.8 3 -16 71 71 SE 7 11 30.50 1033 10 16 N/A
5:55 am 05:55 Cloudy 11 -11.7 3 -15.9 71 71 SE 6 9 30.50 1033 10 16 N/A
6:15 am 06:15 Cloudy 11 -11.6 4 -15.5 73 73 SE 7 11 30.50 1033 10 16 N/A
6:35 am 06:35 Cloudy 11 -11.7 4 -15.6 73 73 SE 7 11 30.50 1033 10 16 N/A
6:55 am 06:55 Cloudy 11 -11.7 4 -15.5 74 74 SE 8 13 30.50 1033 10 16 N/A
7:15 am 07:15 Cloudy 11 -11.9 3 -15.9 72 72 SE 8 13 30.50 1033 10 16 N/A
7:35 am 07:35 Cloudy with Light Snow 10 -12 4 -15.6 75 75 SSE 8 13 30.50 1033 4 6 N/A
7:55 am 07:55 Cloudy with Light Snow 10 -12 5 -15.1 78 78 SE 7 11 30.50 1033 2 3 N/A
8:15 am 08:15 Cloudy with Light Snow 10 -12 5 -14.8 80 80 SE 9 15 30.50 1033 1 2 N/A
8:35 am 08:35 Cloudy with Light Snow 10 -12 6 -14.7 81 81 SE 10 17 30.48 1032 2 2 N/A
8:55 am 08:55 Cloudy with Light Snow 10 -12 6 -14.6 81 81 SE 14 22 30.48 1032 1 2 N/A
9:15 am 09:15 Cloudy with Light Snow 10 -12 6 -14.5 82 82 SSE 12 19 30.48 1032 1 2 N/A
9:35 am 09:35 Cloudy with Light Snow 11 -11.9 5 -14.9 79 79 SSE 14 22 30.48 1032 3 5 N/A
9:55 am 09:55 Cloudy with Light Snow 10 -12 5 -15 79 79 SSE 14 22 30.48 1032 2 2 N/A
10:15 am 10:15 Cloudy with Light Snow 10 -12 5 -14.9 79 79 SSE 12 19 30.48 1032 1 2 N/A
10:35 am 10:35 Cloudy with Light Snow 10 -12 5 -15 79 79 SSE 14 22 30.48 1032 1 2 N/A
10:55 am 10:55 Cloudy with Light Snow 10 -12.1 6 -14.7 81 81 SSE 9 15 30.48 1032 1 1 N/A
11:15 am 11:15 Cloudy with Snow 10 -12.1 6 -14.7 81 81 SSE 12 19 30.48 1032 1 1 N/A
11:35 am 11:35 Cloudy with Light Snow 10 -12.1 6 -14.7 81 81 SE 8 13 30.48 1032 1 1 0.01 0.25
11:55 am 11:55 Cloudy with Light Snow 10 -12 5 -14.8 80 80 SSE 8 13 30.48 1032 1 2 0.01 0.25
12:15 pm 12:15 Cloudy with Light Snow 10 -12 6 -14.7 81 81 SE 8 13 30.45 1031 1 1 N/A
12:35 pm 12:35 Cloudy with Light Snow 10 -12 6 -14.5 82 82 SSE 8 13 30.45 1031 1 2 N/A
12:55 pm 12:55 Cloudy with Light Snow 11 -11.7 6 -14.4 81 81 S 9 15 30.42 1030 1 2 N/A
1:15 pm 13:15 Cloudy with Snow 11 -11.7 6 -14.3 81 81 SSE 9 15 30.39 1029 1 1 0.01 0.25
1:35 pm 13:35 Cloudy with Snow 11 -11.7 6 -14.5 80 80 SSE 9 15 30.39 1029 0 0 0.01 0.25
1:55 pm 13:55 Cloudy with Snow 11 -11.5 7 -14 82 82 SSE 7 11 30.39 1029 1 1 0.01 0.25
2:15 pm 14:15 Cloudy with Light Snow 12 -11 8 -13.6 81 81 S 7 11 30.39 1029 3 4 N/A
2:35 pm 14:35 Cloudy with Light Snow 13 -10.6 8 -13.5 79 79 S 9 15 30.39 1029 5 8 0.01 0.25
2:55 pm 14:55 Cloudy with Light Snow 13 -10.3 8 -13.4 78 78 S 8 13 30.36 1028 7 11 0.01 0.25
3:15 pm 15:15 Cloudy 14 -10 8 -13.3 77 77 S 12 19 30.36 1028 10 16 N/A
3:35 pm 15:35 Cloudy 14 -10 8 -13.2 78 78 SSE 10 17 30.36 1028 10 16 N/A
3:55 pm 15:55 Mostly Cloudy 14 -10 8 -13.5 76 76 SSE 10 17 30.36 1028 10 16 N/A
4:15 pm 16:15 Partly Cloudy 13 -10.5 8 -13.6 78 78 S 10 17 30.36 1028 10 16 N/A
4:35 pm 16:35 Sunny 13 -10.5 8 -13.5 79 79 S 10 17 30.33 1027 10 16 N/A
4:55 pm 16:55 Sunny 13 -10.6 7 -13.7 78 78 S 8 13 30.36 1028 10 16 N/A
5:15 pm 17:15 Sunny 12 -11 7 -14 79 79 SSW 7 11 30.36 1028 10 16 N/A
5:35 pm 17:35 Sunny 11 -11.5 6 -14.3 80 80 W 3 6 30.39 1029 10 16 N/A
5:55 pm 17:55 Sunny 8 -13.5 4 -15.6 84 84 N N/A 30.42 1030 10 16 N/A
6:15 pm 18:15 Clear 6 -14.6 2 -16.4 86 86 SSW 3 6 30.42 1030 10 16 N/A
6:35 pm 18:35 Clear with Mist and Fog 6 -14.2 3 -16 86 86 N N/A 30.42 1030 4 6 N/A
6:55 pm 18:55 Clear 6 -14.6 2 -16.7 84 84 N N/A 30.48 1032 7 11 N/A
7:15 pm 19:15 Mostly Cloudy with Mist and Fog 1 -17.2 -3 -19.6 82 82 N N/A 30.50 1033 1 1 N/A
7:35 pm 19:35 Mostly Cloudy with Haze -2 -18.8 -8 -22 76 76 N N/A 30.53 1034 0 0 N/A
7:55 pm 19:55 Mostly Cloudy with Haze N/A N/A N/A N N/A N/A 1 1 N/A
8:15 pm 20:15 Cloudy with Fog N/A N/A N/A N N/A N/A 0 0 N/A
8:35 pm 20:35 Cloudy with Light Snow N/A N/A N/A N N/A N/A 5 8 N/A
8:55 pm 20:55 Cloudy with Fog N/A N/A N/A N N/A N/A 0 0 N/A
9:15 pm 21:15 Cloudy with Fog N/A N/A N/A N N/A N/A 1 1 N/A
9:35 pm 21:35 Cloudy with Fog N/A N/A N/A N N/A N/A 0 0 N/A
9:55 pm 21:55 Clear with Light Snow N/A N/A N/A N N/A N/A 3 5 N/A
10:15 pm 22:15 Clear N/A N/A N/A W 3 6 N/A 7 11 N/A
10:35 pm 22:35 Mostly Cloudy N/A N/A N/A WNW 5 7 N/A 10 16 N/A
10:55 pm 22:55 Mostly Cloudy N/A N/A N/A WNW 6 9 N/A 10 16 N/A
11:15 pm 23:15 Partly Cloudy N/A N/A N/A N N/A N/A 7 11 N/A
11:35 pm 23:35 Partly Cloudy N/A N/A N/A WNW 6 9 N/A 10 16 N/A
11:55 pm 23:55 Mostly Cloudy N/A N/A N/A WNW 5 7 N/A 10 16 N/A

Powered by AerisWeather